Stations météo

réclame
Mon MeteoGroup
München-Flughafen, Allemagne (10870): Température de l'air & dewpoint: 09.09.2019 12:00:00 - 15.09.2019 12:00:00 (CEST)München-Flughafen, Allemagne (10870): Température de l'air 5cm & Température de l'air -5cm: 09.09.2019 12:00:00 - 15.09.2019 12:00:00 (CEST)München-Flughafen, Allemagne (10870): Température de l'air -20cm & Température de l'air -100cm: 09.09.2019 12:00:00 - 15.09.2019 12:00:00 (CEST)München-Flughafen, Allemagne (10870): Vitesse du vent & gusts: 09.09.2019 12:00:00 - 15.09.2019 12:00:00 (CEST)München-Flughafen, Allemagne (10870): Direction du vent: 09.09.2019 12:00:00 - 15.09.2019 12:00:00 (CEST)München-Flughafen, Allemagne (10870): reduced air pressure: 09.09.2019 12:00:00 - 15.09.2019 12:00:00 (CEST)München-Flughafen, Allemagne (10870): visibility: 09.09.2019 12:00:00 - 15.09.2019 12:00:00 (CEST)München-Flughafen, Allemagne (10870): Ensoleillement: 09.09.2019 12:00:00 - 15.09.2019 12:00:00 (CEST)München-Flughafen, Allemagne (10870): Quantités de précipitations: 09.09.2019 12:00:00 - 15.09.2019 12:00:00 (CEST)
Date & Time tt [°C] td [°C] tt 5cm [°C] tt -5cm [°C] tt -20cm [°C] tt -100cm [°C] ff [km/h] ff [knt] fx [km/h] fx [knt] dd ppp [hPa] vv [km] sd [min] rr [mm]
15.09.2019 12:00:00 18,5 14,8 23,5 23,3 16,6 16,9 6 4 14 8 W 1024,9 25 55 0,0
15.09.2019 11:00:00 15,2 14,7 18,2 19,0 16,5 16,9 8 4 11 6 WSW 1025,8 3,5 13 0,0
15.09.2019 10:00:00 12,8 12,8 14,4 16,4 16,6 16,9 4 2 11 6 - 1026,7 0,5 0 0,0
15.09.2019 09:00:00 10,9 10,9 11,9 13,9 16,8 16,9 7 4 9 5 S 1027,1 0,2 0 0,0
15.09.2019 08:00:00 9,0 9,0 9,4 11,9 17,1 16,9 3 2 4 2 E 1027,4 0,2 0 0,0
15.09.2019 07:00:00 8,2 8,2 7,4 11,6 17,3 16,8 2 1 2 1 SSE 1027,5 0,3 0 0,0
15.09.2019 06:00:00 8,7 8,7 7,7 11,7 17,6 16,8 2 1 4 2 ESE 1027,4 0,9 0 0,0
15.09.2019 05:00:00 9,0 9,0 7,5 11,9 17,9 16,8 4 2 4 2 NNE 1027,8 0,8 0 0,0
15.09.2019 04:00:00 9,3 9,3 7,6 12,4 18,3 16,8 3 2 4 2 NE 1027,8 0,2 0 0,0
15.09.2019 03:00:00 10,3 10,3 8,0 12,9 18,6 16,8 2 1 5 3 SSW 1028,1 5 0 0,0
15.09.2019 02:00:00 10,1 10,0 8,0 13,5 18,9 16,8 4 2 4 2 N 1028,6 5 0 0,0
15.09.2019 01:00:00 11,1 11,0 8,5 14,2 19,2 16,8 2 1 4 2 - 1028,7 7 0 0,0
15.09.2019 00:00:00 12,6 12,6 10,0 15,0 19,5 16,8 2 1 8 4 - 1028,8 10 0 0,0
14.09.2019 23:00:00 13,4 13,4 10,8 15,9 19,8 16,8 3 1 13 7 ENE 1028,8 15 0 0,0
14.09.2019 22:00:00 15,4 14,1 11,5 17,1 20,0 16,8 8 4 9 5 NE 1028,5 10 0 0,0
14.09.2019 21:00:00 15,7 13,7 13,3 18,4 20,1 16,8 4 2 8 4 ENE 1028,3 10 0 0,0
14.09.2019 20:00:00 18,9 14,6 15,3 20,1 20,1 16,8 5 3 11 6 NE 1027,7 10 0 0,0
14.09.2019 19:00:00 20,5 14,9 18,6 22,3 20,0 16,8 9 5 13 7 ENE 1027,1 50 9 0,0
14.09.2019 18:00:00 21,4 14,5 20,8 24,7 19,7 16,8 9 5 20 11 NE 1027,0 45 32 0,0
14.09.2019 17:00:00 21,9 14,8 23,1 26,4 19,3 16,8 11 6 23 13 E 1027,2 10 35 0,0
14.09.2019 16:00:00 22,9 14,7 27,9 28,0 18,8 16,8 10 6 21 11 N 1027,2 45 54 0,0
14.09.2019 15:00:00 22,3 15,1 26,2 28,3 18,3 16,8 8 4 19 10 N 1027,8 10 54 0,0
14.09.2019 14:00:00 21,5 14,8 25,6 27,1 17,8 16,8 8 4 15 8 NNE 1028,5 10 48 0,0
14.09.2019 13:00:00 21,3 15,0 25,4 26,0 17,4 16,8 8 4 16 9 N 1028,9 10 55 0,0
14.09.2019 12:00:00 20,4 14,9 24,9 24,2 17,1 16,8 9 5 16 9 E 1029,5 10 60 0,0
14.09.2019 11:00:00 19,2 14,6 22,5 21,9 17,0 16,7 11 6 20 11 E 1030,3 10 59 0,0
14.09.2019 10:00:00 18,1 14,6 22,0 19,3 17,0 16,7 8 4 13 7 NE 1030,7 40 28 0,0
14.09.2019 09:00:00 16,6 14,9 17,7 16,8 17,1 16,7 7 4 13 7 NNE 1030,9 40 14 0,0
14.09.2019 08:00:00 14,9 14,6 14,6 14,9 17,2 16,7 2 1 5 3 E 1030,8 10 0 0,0
14.09.2019 07:00:00 13,9 13,9 12,8 14,4 17,4 16,7 4 2 4 2 NE 1030,8 10 0 0,0
14.09.2019 06:00:00 14,3 14,1 13,3 14,7 17,6 16,7 2 1 4 2 - 1030,7 10 0 0,0
14.09.2019 05:00:00 12,2 12,0 11,6 14,2 17,8 16,7 2 1 8 4 - 1031,2 10 0 0,0
14.09.2019 04:00:00 12,5 12,4 10,2 14,5 18,0 16,7 2 1 4 2 - 1031,6 10 0 0,0
14.09.2019 03:00:00 13,2 13,0 13,1 15,2 18,2 16,7 2 1 4 2 W 1031,5 10 0 0,0
14.09.2019 02:00:00 13,0 12,8 12,0 15,2 18,5 16,7 4 2 5 3 NW 1031,8 10 0 0,0
14.09.2019 01:00:00 13,7 13,7 11,5 15,1 18,7 16,7 0 0 5 3 N 1031,6 40 0 0,0
14.09.2019 00:00:00 14,8 14,3 12,4 15,9 19,0 16,7 2 1 5 3 - 1031,5 10 0 0,0
13.09.2019 23:00:00 12,7 12,2 11,4 16,1 19,3 16,7 0 0 3 2 N 1032,1 10 0 0,0
13.09.2019 22:00:00 14,5 13,8 12,3 17,1 19,4 16,7 0 0 9 5 N 1031,5 60 0 0,0
13.09.2019 21:00:00 18,6 14,2 14,2 18,6 19,5 16,7 6 3 9 5 N 1030,5 60 0 0,0
13.09.2019 20:00:00 20,0 14,2 15,9 20,3 19,5 16,7 8 4 11 6 NNE 1030,0 10 25 0,0
13.09.2019 19:00:00 21,9 13,7 22,1 22,8 19,2 16,7 4 2 10 6 - 1029,4 10 60 0,0
13.09.2019 18:00:00 23,1 13,3 25,0 25,6 18,9 16,7 9 5 15 8 NNW 1029,1 10 60 0,0
13.09.2019 17:00:00 23,2 13,4 27,1 26,7 18,4 16,7 4 2 15 8 - 1029,3 10 58 0,0
13.09.2019 16:00:00 23,4 13,5 28,1 27,7 17,8 16,7 10 5 24 13 NW 1029,7 70 56 0,0
13.09.2019 15:00:00 22,9 13,1 26,0 27,5 17,2 16,7 13 7 21 11 NNW 1030,0 10 45 0,0
13.09.2019 14:00:00 22,3 12,9 24,6 28,5 16,7 16,7 15 8 21 11 NNW 1030,3 10 57 0,0
13.09.2019 13:00:00 22,4 13,6 27,6 26,5 16,1 16,7 14 8 21 11 W 1030,4 60 60 0,0
13.09.2019 12:00:00 21,4 12,9 25,8 24,6 15,8 16,7 8 4 16 8 WSW 1030,8 10 60 0,0
13.09.2019 11:00:00 20,1 13,2 23,5 21,5 15,6 16,7 7 4 16 9 SW 1031,1 50 60 0,0
13.09.2019 10:00:00 17,5 12,4 20,1 18,0 15,6 16,7 8 5 16 9 SW 1031,7 45 60 0,0
13.09.2019 09:00:00 14,8 12,1 16,4 14,8 15,7 16,7 13 7 16 9 WSW 1032,2 10 60 0,0
13.09.2019 08:00:00 12,6 11,2 12,3 12,3 15,9 16,7 8 4 13 7 WSW 1032,6 10 46 0,0
13.09.2019 07:00:00 12,6 11,8 11,2 11,7 16,1 16,7 4 2 7 4 SW 1032,5 10 0 0,0
13.09.2019 06:00:00 11,9 11,1 10,0 12,5 16,2 16,7 4 2 11 6 - 1032,4 10 0 0,0
13.09.2019 05:00:00 12,4 11,5 10,6 12,6 16,4 16,7 9 5 11 6 SSW 1032,0 10 0 0,0
13.09.2019 04:00:00 12,3 11,5 11,1 13,0 16,6 16,7 9 5 11 6 S 1032,2 35 0 0,0
13.09.2019 03:00:00 11,5 11,1 10,6 12,9 16,9 16,7 4 2 5 3 WSW 1032,4 10 0 0,0
13.09.2019 02:00:00 11,1 11,1 9,8 12,7 17,2 16,7 2 1 4 2 SW 1032,6 35 0 0,0
13.09.2019 01:00:00 10,0 9,8 8,8 12,8 17,5 16,7 2 1 4 2 S 1032,7 35 0 0,0
13.09.2019 00:00:00 11,1 10,8 9,0 13,5 17,7 16,7 2 1 4 2 - 1032,5 10 0 0,0
12.09.2019 23:00:00 11,7 11,5 9,6 14,3 18,0 16,7 0 0 4 2 N 1032,3 10 0 0,0
12.09.2019 22:00:00 13,2 12,1 10,7 15,3 18,2 16,7 2 1 5 3 - 1031,7 10 0 0,0
12.09.2019 21:00:00 15,5 11,8 12,7 16,4 18,3 16,7 0 0 4 2 N 1031,0 10 0 0,0
12.09.2019 20:00:00 17,9 11,9 13,3 18,1 18,2 16,7 2 1 8 4 NW 1030,2 70 30 0,0
12.09.2019 19:00:00 21,2 11,2 19,6 20,4 18,1 16,7 5 3 15 8 W 1029,5 10 60 0,0
12.09.2019 18:00:00 22,1 11,1 22,4 23,1 17,7 16,7 8 4 18 10 W 1029,1 80 60 0,0
12.09.2019 17:00:00 22,2 10,7 24,2 24,8 17,3 16,7 12 7 20 11 WSW 1029,3 80 57 0,0
12.09.2019 16:00:00 21,4 10,6 22,3 25,4 16,8 16,7 10 5 22 12 WSW 1030,0 80 53 0,0
12.09.2019 15:00:00 22,1 10,8 26,0 26,0 16,3 16,7 15 8 25 13 W 1030,1 10 60 0,0
12.09.2019 14:00:00 21,3 10,7 25,0 24,7 15,9 16,8 13 7 22 12 WSW 1030,4 70 60 0,0
12.09.2019 13:00:00 20,6 10,7 24,3 23,4 15,5 16,8 11 6 21 11 W 1030,9 70 48 0,0
12.09.2019 12:00:00 19,7 9,7 22,8 21,1 15,3 16,8 11 6 21 12 W 1031,1 10 38 0,0
12.09.2019 11:00:00 18,1 10,8 19,1 17,9 15,2 16,8 9 5 16 9 W 1031,1 10 0 0,0
12.09.2019 10:00:00 16,7 11,5 17,5 16,3 15,2 16,8 9 5 15 8 WSW 1030,9 10 1 0,0
12.09.2019 09:00:00 15,1 11,8 15,8 14,7 15,2 16,8 9 5 13 7 SSW 1030,7 10 0 0,0
12.09.2019 08:00:00 13,9 11,0 13,7 13,5 15,3 16,8 4 2 11 6 - 1030,5 10 0 0,0
12.09.2019 07:00:00 13,7 10,9 13,1 13,1 15,4 16,8 8 4 13 7 SW 1030,1 10 0 0,0
12.09.2019 06:00:00 12,9 11,2 12,3 13,1 15,5 16,8 9 5 17 9 SW 1029,7 10 0 0,0
12.09.2019 05:00:00 12,8 11,6 12,2 13,1 15,6 16,8 11 6 13 7 WSW 1029,5 10 0 0,0
12.09.2019 04:00:00 12,8 11,7 12,1 13,0 15,8 16,8 8 4 11 6 SW 1029,3 10 0 0,0
12.09.2019 03:00:00 11,5 10,9 10,8 13,0 16,0 16,8 5 3 8 4 SSW 1029,3 45 0 0,0
12.09.2019 02:00:00 12,3 10,9 11,0 13,1 16,1 16,8 2 1 9 5 SSW 1028,8 45 0 0,0
12.09.2019 01:00:00 12,5 10,5 10,8 13,0 16,4 16,8 3 2 11 6 S 1028,2 50 0 0,0
12.09.2019 00:00:00 12,3 11,0 10,7 13,0 16,6 16,9 9 5 13 7 SSW 1028,1 10 0 0,0
11.09.2019 23:00:00 10,8 10,2 8,4 13,3 16,8 16,9 4 2 5 3 - 1027,8 10 0 0,0
11.09.2019 22:00:00 11,2 10,0 10,2 14,0 17,0 16,9 0 0 4 2 N 1027,2 60 0 0,0
11.09.2019 21:00:00 12,3 10,2 12,0 15,1 17,1 16,9 0 0 4 2 N 1026,6 60 0 0,0
11.09.2019 20:00:00 15,4 9,1 11,0 16,4 17,0 16,9 4 2 5 3 NW 1025,0 10 16 0,0
11.09.2019 19:00:00 19,0 8,0 17,9 18,6 16,8 16,9 2 1 15 8 - 1023,7 10 60 0,0
11.09.2019 18:00:00 19,8 8,4 20,3 21,1 16,4 16,9 9 5 15 8 NNW 1023,4 10 59 0,0
11.09.2019 17:00:00 20,2 6,7 22,0 23,2 15,9 16,9 8 4 11 6 WNW 1022,8 10 60 0,0
11.09.2019 16:00:00 20,3 6,8 23,0 24,4 15,3 16,9 4 2 15 8 WNW 1022,7 50 60 0,0
11.09.2019 15:00:00 19,4 5,2 24,6 24,0 14,7 17,0 5 3 13 7 E 1023,1 50 60 0,0
11.09.2019 14:00:00 19,0 8,2 24,7 23,4 14,2 17,0 7 4 18 10 N 1023,2 50 60 0,0
11.09.2019 13:00:00 18,2 8,1 23,5 21,4 13,8 17,0 9 5 15 8 W 1023,3 10 60 0,0
11.09.2019 12:00:00 16,3 10,2 19,7 18,5 13,5 17,0 5 3 9 5 W 1023,6 10 19 0,0
11.09.2019 11:00:00 14,5 8,4 17,4 16,6 13,4 17,0 4 2 8 4 - 1024,0 10 11 0,0
11.09.2019 10:00:00 12,7 9,0 13,6 13,3 13,4 17,0 3 2 8 4 W 1023,8 40 0 0,0
11.09.2019 09:00:00 11,4 10,0 11,0 11,4 13,5 17,0 4 2 5 3 W 1023,7 40 0 0,0
11.09.2019 08:00:00 10,4 9,1 9,5 10,1 13,6 17,0 0 0 9 5 N 1023,3 35 0 0,0
11.09.2019 07:00:00 9,3 8,5 8,7 9,6 13,7 17,1 6 3 9 5 W 1023,0 35 0 0,0
11.09.2019 06:00:00 7,8 7,8 7,4 9,4 13,9 17,1 3 2 8 4 S 1022,5 18 0 0,0
11.09.2019 05:00:00 7,5 7,5 7,3 9,4 14,1 17,1 4 2 5 3 SSW 1022,2 10 0 0,0
11.09.2019 04:00:00 7,1 7,0 6,8 9,1 14,4 17,1 3 2 5 3 WNW 1022,2 18 0 0,0
11.09.2019 03:00:00 6,8 6,8 5,3 8,9 14,6 17,1 6 4 8 4 NW 1022,3 20 0 0,0
11.09.2019 02:00:00 7,1 7,1 5,3 9,1 14,9 17,1 2 1 5 3 - 1022,2 10 0 0,0
11.09.2019 01:00:00 7,2 7,2 5,5 9,5 15,2 17,2 0 0 5 3 N 1021,8 10 0 0,0
11.09.2019 00:00:00 8,0 8,0 5,9 10,1 15,4 17,2 0 0 8 4 N 1021,9 10 0 0,0
10.09.2019 23:00:00 8,4 8,3 6,0 10,9 15,6 17,2 4 2 8 4 - 1021,6 10 0 0,0
10.09.2019 22:00:00 9,5 9,4 7,7 11,9 15,8 17,2 4 2 9 5 NNW 1021,0 10 0 0,0
10.09.2019 21:00:00 13,0 10,5 9,3 13,2 15,9 17,2 5 3 9 5 N 1019,6 10 0 0,0
10.09.2019 20:00:00 14,8 10,7 10,6 14,9 15,8 17,3 8 4 11 6 NNE 1018,5 45 27 0,0
10.09.2019 19:00:00 17,0 10,0 16,3 17,0 15,6 17,3 8 4 15 8 NE 1017,7 10 60 0,0
10.09.2019 18:00:00 17,9 10,4 19,1 19,4 15,2 17,3 9 5 17 9 ENE 1017,0 10 60 0,0
10.09.2019 17:00:00 17,9 9,7 20,5 20,9 14,7 17,3 11 6 18 10 NE 1016,8 10 60 0,0
10.09.2019 16:00:00 17,7 9,7 21,5 22,1 14,1 17,3 13 7 22 12 E 1016,8 10 60 0,0
10.09.2019 15:00:00 17,3 9,9 21,4 21,9 13,5 17,3 9 5 23 13 ENE 1017,0 10 60 0,0
10.09.2019 14:00:00 16,4 9,5 20,5 21,1 13,0 17,4 15 8 24 13 ENE 1017,4 10 59 0,0
10.09.2019 13:00:00 15,2 9,3 20,2 20,3 12,4 17,4 13 7 24 13 E 1017,8 10 60 0,0
10.09.2019 12:00:00 14,4 9,7 19,3 18,4 12,1 17,4 11 6 18 10 E 1018,1 10 60 0,0
10.09.2019 11:00:00 12,0 9,0 16,5 15,4 11,8 17,4 8 4 11 6 NE 1018,6 5 40 0,0
10.09.2019 10:00:00 8,5 7,8 11,1 12,7 11,8 17,4 5 3 10 6 NE 1018,9 2,5 46 0,0
10.09.2019 09:00:00 7,8 6,8 9,6 9,5 11,9 17,4 5 3 8 4 NE 1019,2 3,5 59 0,0
10.09.2019 08:00:00 5,0 4,6 5,7 6,3 12,1 17,5 3 1 5 3 ENE 1019,2 2,5 35 0,0
10.09.2019 07:00:00 3,0 3,0 1,6 5,5 12,3 17,5 2 1 4 2 N 1018,9 2,8 0 0,0
10.09.2019 06:00:00 3,9 3,9 2,2 5,8 12,5 17,5 4 2 5 3 E 1018,3 9 0 0,0
10.09.2019 05:00:00 3,3 3,3 2,1 6,2 12,7 17,5 4 2 4 2 SE 1018,4 10 0 0,0
10.09.2019 04:00:00 5,0 5,0 3,3 6,7 12,9 17,5 0 0 4 2 N 1018,1 1,2 0 0,0
10.09.2019 03:00:00 4,3 4,3 4,4 6,8 13,1 17,6 0 0 5 3 N 1018,2 15 0 0,0
10.09.2019 02:00:00 4,3 4,3 2,7 6,8 13,3 17,6 2 1 4 2 - 1018,2 3,0 0 0,0
10.09.2019 01:00:00 4,3 4,3 3,1 7,3 13,5 17,6 0 0 4 2 N 1018,4 2,0 0 0,0
10.09.2019 00:00:00 4,8 4,8 3,4 7,7 13,8 17,6 0 0 5 3 N 1018,4 6 0 0,0
09.09.2019 23:00:00 8,0 8,0 5,1 8,4 13,9 17,6 2 1 5 3 - 1017,7 10 0 0,0
09.09.2019 22:00:00 8,4 8,2 5,5 9,0 14,1 17,6 4 2 11 6 - 1017,5 10 0 0,0
09.09.2019 21:00:00 10,7 9,3 8,4 9,9 14,2 17,7 5 3 13 7 WSW 1016,6 10 0 0,0
09.09.2019 20:00:00 9,9 9,1 7,0 11,2 14,2 17,7 7 4 9 5 WSW 1016,2 40 29 0,0
09.09.2019 19:00:00 12,4 9,4 11,8 12,6 14,1 17,7 7 4 21 11 W 1015,6 40 26 0,0
09.09.2019 18:00:00 12,5 9,5 12,6 14,0 14,0 17,7 13 7 29 16 W 1015,7 10 13 0,0
09.09.2019 17:00:00 12,2 9,8 12,6 13,4 13,9 17,7 21 11 35 19 W 1015,8 10 0 0,0
09.09.2019 16:00:00 12,4 9,7 12,4 14,3 13,8 17,8 17 9 38 21 W 1015,5 15 0 0,0
09.09.2019 15:00:00 11,6 10,4 11,9 13,1 13,7 17,8 22 12 39 21 W 1015,6 10 0 1,0
09.09.2019 14:00:00 11,4 10,4 11,4 13,1 13,7 17,8 22 12 34 18 W 1015,4 4,5 0 1,1
09.09.2019 13:00:00 12,1 9,8 12,3 12,4 13,6 17,8 21 11 32 17 W 1015,0 10 0 0,0
09.09.2019 12:00:00 11,9 9,4 12,2 12,5 13,6 17,8 21 11 31 17 W 1014,9 10 0 0,0

tt = Température de l'air
td = dewpoint
tt 5cm = Température de l'air 5cm
tt -5cm = Température de l'air -5cm
tt -20cm = Température de l'air -20cm
tt -100cm = Température de l'air -100cm
ff = Vitesse du vent
fx = gusts
dd = Direction du vent
ppp = reduced air pressure
vv = visibility
sd = Ensoleillement
rr = Quantités de précipitations

stations d'obs. à proximité